FORMOSAT-5 (42920 NORAD) Tracking and Keplerian Element Data

This shows tracking and keplerian element data for the satellite.

Feedback or suggestion? Click here.




ElementValue
Catalog42920
NameFORMOSAT-5
Epoch Orbit6466
Epoch Day317.71425475
Epoch Year2018
RAAN32.9403
Inclination98.3508
Eccentricity0.0009899
Argument of Perigee318.5072
Mean Anonmoly41.5355
Mean Motion14.50835062
Decay Rate1.23E-05
L11 42920U 17049A 18317.71425475 .00001230 00000-0 32331-3 0 9994
L22 42920 98.3508 32.9403 0009899 318.5072 41.5355 14.50835062 64663

Live tracking and technical data element details for FORMOSAT-5 (NORAD 42920). FORMOSAT-5 can be tracked NOW for your location showing map with azimuth and elevation plus other details from your city location.

Track the satellite on the map from your city or location and see movement details for azimuth, elevation, latitude, longitude, range, height, and movement on the map or in text.







IsCatalogInMostPopularTable: catalog: 42920, numindb: 161
Update: records affected: 1



GetName: 42920 FORMOSAT-5

Hit Count: updated at: Thu, 15 Nov 2018 03:58:00 GMT